Location: Sunnyvale
(37.3814°N, 122.0645°W)
Time: 16:20:41
(UTC-08:00)

BlueWalker 3 - Pass Details

Date: 19 December 2025
Orbit: 452 x 463 km, 53.2° (Epoch: 13 January)

Event Time Altitude Azimuth Distance (km) Brightness Sun altitude
Rises 06:32:06 0° 217° (SW) 2,444 5.3 -9.0°
Reaches altitude 10° 06:34:14 10° 213° (SSW) 1,577 4.4 -8.6°
Maximum altitude 06:37:43 58° 134° (SE) 534 2.4 -8.0°
Drops below altitude 10° 06:41:15 10° 55° (NE) 1,593 4.9 -7.4°
Sets 06:43:25 0° 51° (NE) 2,472 5.8 -7.0°
